Location: The D'Auria's Ocala Star Observatory
(29.0276°N, 82.1742°W)
Time: 10:33:35
(UTC-04:00)

Okean 3 Rocket - Visible Passes

Search period start: 22 May 2015 00:00
Search period end: 01 June 2015 00:00
Orbit: 615 x 647 km, 82.5° (Epoch: 21 May)

Date Brightness Start Highest point End Pass type
(mag) Time Alt. Az. Time Alt. Az. Time Alt. Az.
22 May 6.4 00:12:50 15° N 00:12:50 15° N 00:13:40 10° N visible
23 May 6.6 00:33:29 12° NNW 00:33:29 12° NNW 00:34:00 10° NNW visible
23 May 6.0 23:16:43 16° NNE 23:16:43 16° NNE 23:17:44 10° NNE visible
24 May 5.8 23:37:19 22° N 23:37:19 22° N 23:38:55 10° N visible
25 May 6.1 23:57:52 20° NNW 23:57:52 20° NNW 23:59:33 10° NNW visible
26 May 5.5 22:41:02 20° NE 22:41:02 20° NE 22:42:39 10° NNE visible
27 May 6.5 00:18:24 12° NW 00:18:24 12° NW 00:19:15 10° NW visible
27 May 4.9 23:01:32 34° NNE 23:01:32 34° NNE 23:04:05 10° N visible
28 May 5.1 23:22:00 34° NW 23:22:00 34° NW 23:24:58 10° N visible
29 May 5.1 22:05:04 21° ENE 22:05:04 21° ENE 22:07:26 10° NE visible
29 May 5.9 23:42:25 20° WNW 23:42:25 20° WNW 23:45:09 10° NNW visible
30 May 3.9 22:25:26 49° ENE 22:25:26 49° ENE 22:29:09 10° NNE visible
31 May 3.8 22:45:45 64° W 22:45:51 64° W 22:50:14 10° N visible
